American Canyon, CA

2:06 AM PDT on September 25, 2016 (GMT -0700)
Napa County

Weather History for KAPC - January, 2014

Change the Weather History Date:

Thursday, January 16, 2014

  Actual Average Record
Temperature  
Mean Temperature 50 °F 46 °F  
Max Temperature 70 °F 55 °F 70 °F (2014)
Min Temperature 30 °F 37 °F 20 °F (2007)
Degree Days  
Heating Degree Days 15    
Month to date heating degree days 276  
Since 1 July heating degree days 1621  
Cooling Degree Days 0    
Month to date cooling degree days 0  
Year to date cooling degree days 0  
Moisture  
Dew Point 30 °F    
Average Humidity 60    
Maximum Humidity 100    
Minimum Humidity 20    
Precipitation  
Precipitation 0.00 in - 1.90 in (1978)
Month to date precipitation T  
Year to date precipitation T  
Since 1 July precipitation 2.20  
Sea Level Pressure  
Sea Level Pressure 30.15 in    
Wind  
Wind Speed 6 mph (ENE)    
Max Wind Speed 22 mph    
Max Gust Speed 28 mph    
Visibility 10 miles    
Events      
T = Trace of Precipitation, MM = Missing Value Source: NWS Daily Summary

Daily Weather History Graph

Daily Weather History Graph

Search for Another Location

Airport or City:

Trip Planner

Search our weather history database for the weather conditions in past years. The results will help you decide how hot, cold, wet, or windy it might be!

Date:

Astronomy

Jan. 16, 2014 Rise Set
Actual Time 7:24 AM PST 5:14 PM PST
Civil Twilight 6:55 AM PST 5:43 PM PST
Nautical Twilight 6:22 AM PST 6:15 PM PST
Astronomical Twilight 5:51 AM PST 6:47 PM PST
Moon 6:09 PM PST (1/16) 7:22 AM PST (1/16)
Length of Visible Light 10h 47m
Length of Day
9h 50m
Full, 100% of the Moon is Illuminated
Jan 16
Full
Jan 23
Last Quarter
Jan 30
New
Feb 6
First Quarter
Feb 14
Full

Hourly Weather History & Observations

Time (PST) Temp. Windchill Dew Point Humidity Pressure Visibility Wind Dir Wind Speed Gust Speed Precip Events Conditions
12:54 AM 37.9 °F 35.5 °F 33.1 °F 83% 30.19 in 10.0 mi WSW 3.5 mph - N/A   Clear
1:54 AM 35.1 °F - 30.9 °F 85% 30.20 in 10.0 mi Calm Calm - N/A   Clear
2:54 AM 33.1 °F - 30.0 °F 89% 30.20 in 10.0 mi Calm Calm - N/A   Clear
3:54 AM 33.1 °F - 30.0 °F 89% 30.18 in 10.0 mi Calm Calm - N/A   Clear
4:54 AM 30.9 °F 27.5 °F 30.0 °F 96% 30.18 in 10.0 mi NW 3.5 mph - N/A   Clear
5:54 AM 34.0 °F - 30.9 °F 89% 30.18 in 10.0 mi Calm Calm - N/A   Clear
6:54 AM 32.0 °F 27.5 °F 30.0 °F 92% 30.19 in 10.0 mi North 4.6 mph - N/A   Clear
7:54 AM 33.1 °F - 28.0 °F 82% 30.19 in 10.0 mi Calm Calm - N/A   Clear
8:54 AM 42.1 °F - 36.0 °F 79% 30.22 in 10.0 mi Calm Calm - N/A   Clear
9:54 AM 55.0 °F - 27.0 °F 34% 30.22 in 10.0 mi East 17.3 mph - N/A   Clear
10:54 AM 59.0 °F - 26.1 °F 28% 30.19 in 10.0 mi East 17.3 mph 24.2 mph N/A   Clear
11:54 AM 61.0 °F - 28.9 °F 30% 30.17 in 10.0 mi East 19.6 mph 27.6 mph N/A   Clear
12:54 PM 66.9 °F - 30.9 °F 26% 30.13 in 10.0 mi East 12.7 mph - N/A   Clear
1:54 PM 66.9 °F - 28.9 °F 24% 30.11 in 10.0 mi East 12.7 mph 23.0 mph N/A   Clear
2:54 PM 70.0 °F - 27.0 °F 20% 30.11 in 10.0 mi East 12.7 mph - N/A   Clear
3:54 PM 69.1 °F - 28.9 °F 22% 30.10 in 10.0 mi East 10.4 mph - N/A   Clear
4:54 PM 62.1 °F - 32.0 °F 32% 30.11 in 10.0 mi SSE 5.8 mph - N/A   Clear
5:54 PM 55.9 °F - 34.0 °F 44% 30.11 in 10.0 mi Calm Calm - N/A   Clear
6:54 PM 50.0 °F - 37.0 °F 61% 30.12 in 10.0 mi Calm Calm - N/A   Clear
7:54 PM 44.1 °F 42.5 °F 33.1 °F 65% 30.12 in 10.0 mi NNE 3.5 mph - N/A   Clear
8:54 PM 43.0 °F 41.3 °F 30.0 °F 60% 30.12 in 10.0 mi NNE 3.5 mph - N/A   Clear
9:54 PM 36.0 °F - 28.0 °F 73% 30.12 in 10.0 mi Calm Calm - N/A   Clear
10:54 PM 37.0 °F - 30.0 °F 76% 30.12 in 10.0 mi Calm Calm - N/A   Clear
11:54 PM 42.1 °F 37.1 °F 28.9 °F 60% 30.12 in 10.0 mi North 8.1 mph - N/A   Clear